Time,TemperatureF,DewpointF,PressureIn,WindDirection,WindDirectionDegrees,WindSpeedMPH,WindSpeedGustMPH,Humidity,HourlyPrecipIn,Conditions,Clouds,dailyrainin,SolarRadiationWatts/m^2,SoftwareType,DateUTC
2013-07-02 00:01:00,71.0,54.0,-100.00,NW,314,5.0,8.0,55,-99.99,,,-99.99,0.120000,,2013-07-02 06:01:00,
2013-07-02 00:11:00,71.0,54.0,-100.00,NW,314,5.0,8.0,55,-99.99,,,-99.99,0.120000,,2013-07-02 06:11:00,
2013-07-02 00:43:00,63.0,55.0,-100.00,SSW,207,5.0,6.0,74,-99.99,,,-99.99,0.120000,,2013-07-02 06:43:00,
2013-07-02 00:53:00,63.0,55.0,-100.00,SSW,207,5.0,6.0,74,-99.99,,,-99.99,0.120000,,2013-07-02 06:53:00,
2013-07-02 01:01:00,63.0,55.0,-100.00,SSW,207,5.0,6.0,74,-99.99,,,-99.99,0.120000,,2013-07-02 07:01:00,
2013-07-02 01:11:00,63.0,55.0,-100.00,SSW,207,5.0,6.0,74,-99.99,,,-99.99,0.120000,,2013-07-02 07:11:00,
2013-07-02 01:44:00,62.0,55.0,-100.00,SSE,165,3.0,5.0,75,-99.99,,,-99.99,0.120000,,2013-07-02 07:44:00,
2013-07-02 01:53:00,62.0,55.0,-100.00,SSE,165,3.0,5.0,75,-99.99,,,-99.99,0.120000,,2013-07-02 07:53:00,
2013-07-02 02:02:00,62.0,55.0,-100.00,SSE,165,3.0,5.0,75,-99.99,,,-99.99,0.120000,,2013-07-02 08:02:00,
2013-07-02 02:12:00,62.0,55.0,-100.00,SSE,165,3.0,5.0,75,-99.99,,,-99.99,0.120000,,2013-07-02 08:12:00,
2013-07-02 02:44:00,57.0,54.0,-100.00,South,185,3.0,5.0,91,-99.99,,,-99.99,0.120000,,2013-07-02 08:44:00,
2013-07-02 02:53:00,57.0,54.0,-100.00,South,185,3.0,5.0,91,-99.99,,,-99.99,0.120000,,2013-07-02 08:53:00,
2013-07-02 03:01:00,57.0,54.0,-100.00,South,185,3.0,5.0,91,-99.99,,,-99.99,0.120000,,2013-07-02 09:01:00,
2013-07-02 03:11:00,57.0,54.0,-100.00,South,185,3.0,5.0,91,-99.99,,,-99.99,0.120000,,2013-07-02 09:11:00,
2013-07-02 03:43:00,58.0,53.0,-100.00,SE,144,3.0,5.0,86,-99.99,,,-99.99,0.120000,,2013-07-02 09:43:00,
2013-07-02 03:52:00,58.0,53.0,-100.00,SE,144,3.0,5.0,86,-99.99,,,-99.99,0.120000,,2013-07-02 09:52:00,
2013-07-02 04:01:00,58.0,53.0,-100.00,SE,144,3.0,5.0,86,-99.99,,,-99.99,0.120000,,2013-07-02 10:01:00,
2013-07-02 04:11:00,58.0,53.0,-100.00,SE,144,3.0,5.0,86,-99.99,,,-99.99,0.120000,,2013-07-02 10:11:00,
2013-07-02 04:43:00,57.0,53.0,-100.00,West,259,3.0,5.0,86,-99.99,,,-99.99,0.120000,,2013-07-02 10:43:00,
2013-07-02 04:52:00,57.0,53.0,-100.00,West,259,3.0,5.0,86,-99.99,,,-99.99,0.120000,,2013-07-02 10:52:00,
2013-07-02 05:01:00,57.0,53.0,-100.00,West,259,3.0,5.0,86,-99.99,,,-99.99,0.120000,,2013-07-02 11:01:00,
2013-07-02 05:11:00,57.0,53.0,-100.00,West,259,3.0,5.0,86,-99.99,,,-99.99,0.120000,,2013-07-02 11:11:00,
2013-07-02 05:42:00,57.0,52.0,-100.00,SSE,151,3.0,5.0,84,-99.99,,,0.00,0.230000,,2013-07-02 11:42:00,
2013-07-02 05:52:00,57.0,52.0,-100.00,SSE,151,3.0,5.0,84,-99.99,,,0.00,0.230000,,2013-07-02 11:52:00,
2013-07-02 06:01:00,57.0,52.0,-100.00,SSE,151,3.0,5.0,84,-99.99,,,0.00,0.230000,,2013-07-02 12:01:00,
2013-07-02 06:11:00,57.0,52.0,-100.00,SSE,151,3.0,5.0,84,-99.99,,,0.00,0.230000,,2013-07-02 12:11:00,
2013-07-02 06:43:00,56.0,53.0,-100.00,East,85,1.0,2.0,88,-99.99,,,-99.99,25.570000,,2013-07-02 12:43:00,
2013-07-02 06:52:00,56.0,53.0,-100.00,East,85,1.0,2.0,88,-99.99,,,-99.99,25.570000,,2013-07-02 12:52:00,
2013-07-02 07:01:00,56.0,53.0,-100.00,East,85,1.0,2.0,88,-99.99,,,-99.99,25.570000,,2013-07-02 13:01:00,
2013-07-02 07:11:00,56.0,53.0,-100.00,East,85,1.0,2.0,88,-99.99,,,-99.99,25.570000,,2013-07-02 13:11:00,
2013-07-02 07:43:00,61.0,53.0,-100.00,SW,231,1.0,2.0,77,-99.99,,,-99.99,151.320007,,2013-07-02 13:43:00,
2013-07-02 07:52:00,61.0,53.0,-100.00,SW,231,1.0,2.0,77,-99.99,,,-99.99,151.320007,,2013-07-02 13:52:00,
2013-07-02 08:01:00,61.0,53.0,-100.00,SW,231,1.0,2.0,77,-99.99,,,-99.99,151.320007,,2013-07-02 14:01:00,
2013-07-02 08:11:00,61.0,53.0,-100.00,SW,231,1.0,2.0,77,-99.99,,,-99.99,151.320007,,2013-07-02 14:11:00,
2013-07-02 08:43:00,67.0,55.0,-100.00,South,170,2.0,4.0,67,-99.99,,,0.00,284.390015,,2013-07-02 14:43:00,
2013-07-02 08:53:00,67.0,55.0,-100.00,South,170,2.0,4.0,67,-99.99,,,0.00,284.390015,,2013-07-02 14:53:00,
2013-07-02 09:02:00,67.0,55.0,-100.00,South,170,2.0,4.0,67,-99.99,,,0.00,284.390015,,2013-07-02 15:02:00,
2013-07-02 09:11:00,67.0,55.0,-100.00,South,170,2.0,4.0,67,-99.99,,,0.00,284.390015,,2013-07-02 15:11:00,
2013-07-02 09:44:00,72.0,57.0,-100.00,NE,38,3.0,6.0,60,-99.99,,,0.00,439.890015,,2013-07-02 15:44:00,
2013-07-02 09:53:00,72.0,57.0,-100.00,NE,38,3.0,6.0,60,-99.99,,,0.00,439.890015,,2013-07-02 15:53:00,
2013-07-02 10:01:00,72.0,57.0,-100.00,NE,38,3.0,6.0,60,-99.99,,,0.00,439.890015,,2013-07-02 16:01:00,
2013-07-02 10:11:00,72.0,57.0,-100.00,NE,38,3.0,6.0,60,-99.99,,,0.00,439.890015,,2013-07-02 16:11:00,
2013-07-02 10:43:00,75.0,58.0,-100.00,NE,38,6.0,9.0,55,-99.99,,,0.00,677.099976,,2013-07-02 16:43:00,
2013-07-02 10:52:00,75.0,58.0,-100.00,NE,38,6.0,9.0,55,-99.99,,,0.00,677.099976,,2013-07-02 16:52:00,
2013-07-02 11:02:00,75.0,58.0,-100.00,NE,38,6.0,9.0,55,-99.99,,,0.00,677.099976,,2013-07-02 17:02:00,
2013-07-02 11:11:00,75.0,58.0,-100.00,NE,38,6.0,9.0,55,-99.99,,,0.00,677.099976,,2013-07-02 17:11:00,
2013-07-02 11:43:00,80.0,56.0,-100.00,NNE,15,4.0,8.0,43,-99.99,,,0.00,744.270020,,2013-07-02 17:43:00,
2013-07-02 11:53:00,80.0,56.0,-100.00,NNE,15,4.0,8.0,43,-99.99,,,0.00,744.270020,,2013-07-02 17:53:00,
2013-07-02 12:02:00,80.0,56.0,-100.00,NNE,15,4.0,8.0,43,-99.99,,,0.00,744.270020,,2013-07-02 18:02:00,
2013-07-02 12:11:00,80.0,56.0,-100.00,NNE,15,4.0,8.0,43,-99.99,,,0.00,744.270020,,2013-07-02 18:11:00,
2013-07-02 12:43:00,84.0,57.0,-100.00,NNE,27,5.0,9.0,39,-99.99,,,0.00,849.570007,,2013-07-02 18:43:00,
2013-07-02 12:53:00,84.0,57.0,-100.00,NNE,27,5.0,9.0,39,-99.99,,,0.00,849.570007,,2013-07-02 18:53:00,
2013-07-02 13:01:00,84.0,57.0,-100.00,NNE,27,5.0,9.0,39,-99.99,,,0.00,849.570007,,2013-07-02 19:01:00,
2013-07-02 13:11:00,84.0,57.0,-100.00,NNE,27,5.0,9.0,39,-99.99,,,0.00,849.570007,,2013-07-02 19:11:00,
2013-07-02 13:43:00,87.0,55.0,-100.00,NNE,32,7.0,11.0,34,-99.99,,,0.00,788.320007,,2013-07-02 19:43:00,
2013-07-02 13:53:00,87.0,55.0,-100.00,NNE,32,7.0,11.0,34,-99.99,,,0.00,788.320007,,2013-07-02 19:53:00,
2013-07-02 14:01:00,87.0,55.0,-100.00,NNE,32,7.0,11.0,34,-99.99,,,0.00,788.320007,,2013-07-02 20:01:00,
2013-07-02 14:11:00,87.0,55.0,-100.00,NNE,32,7.0,11.0,34,-99.99,,,0.00,788.320007,,2013-07-02 20:11:00,
2013-07-02 14:43:00,90.0,55.0,-100.00,NNE,31,10.0,16.0,29,-99.99,,,0.00,935.570007,,2013-07-02 20:43:00,
2013-07-02 14:52:00,90.0,55.0,-100.00,NNE,31,10.0,16.0,29,-99.99,,,0.00,935.570007,,2013-07-02 20:52:00,
2013-07-02 15:02:00,90.0,55.0,-100.00,NNE,31,10.0,16.0,29,-99.99,,,0.00,935.570007,,2013-07-02 21:02:00,
2013-07-02 15:11:00,90.0,55.0,-100.00,NNE,31,10.0,16.0,29,-99.99,,,0.00,935.570007,,2013-07-02 21:11:00,
2013-07-02 15:43:00,93.0,47.0,-100.00,NNE,16,11.0,18.0,20,-99.99,,,0.00,887.919983,,2013-07-02 21:43:00,
2013-07-02 15:52:00,93.0,47.0,-100.00,NNE,16,11.0,18.0,20,-99.99,,,0.00,887.919983,,2013-07-02 21:52:00,
2013-07-02 16:01:00,93.0,47.0,-100.00,NNE,16,11.0,18.0,20,-99.99,,,0.00,887.919983,,2013-07-02 22:01:00,
2013-07-02 16:11:00,93.0,47.0,-100.00,NNE,16,11.0,18.0,20,-99.99,,,0.00,887.919983,,2013-07-02 22:11:00,
2013-07-02 16:43:00,93.0,49.0,-100.00,NNE,22,12.0,17.0,22,-99.99,,,0.00,775.539978,,2013-07-02 22:43:00,
2013-07-02 16:53:00,93.0,49.0,-100.00,NNE,22,12.0,17.0,22,-99.99,,,0.00,775.539978,,2013-07-02 22:53:00,
2013-07-02 17:01:00,93.0,49.0,-100.00,NNE,22,12.0,17.0,22,-99.99,,,0.00,775.539978,,2013-07-02 23:01:00,
2013-07-02 17:11:00,93.0,49.0,-100.00,NNE,22,12.0,17.0,22,-99.99,,,0.00,775.539978,,2013-07-02 23:11:00,
2013-07-02 17:44:00,92.0,51.0,-100.00,NNE,22,10.0,15.0,24,-99.99,,,0.00,633.859985,,2013-07-02 23:44:00,
2013-07-02 17:52:00,92.0,51.0,-100.00,NNE,22,10.0,15.0,24,-99.99,,,0.00,633.859985,,2013-07-02 23:52:00,
2013-07-02 18:01:00,92.0,51.0,-100.00,NNE,22,10.0,15.0,24,-99.99,,,0.00,633.859985,,2013-07-03 00:01:00,
2013-07-02 18:11:00,92.0,51.0,-100.00,NNE,22,10.0,15.0,24,-99.99,,,0.00,633.859985,,2013-07-03 00:11:00,
2013-07-02 18:44:00,91.0,52.0,-100.00,NNE,21,9.0,15.0,27,-99.99,,,0.00,481.149994,,2013-07-03 00:44:00,
2013-07-02 18:52:00,91.0,52.0,-100.00,NNE,21,9.0,15.0,27,-99.99,,,0.00,481.149994,,2013-07-03 00:52:00,
2013-07-02 19:01:00,91.0,52.0,-100.00,NNE,21,9.0,15.0,27,-99.99,,,0.00,481.149994,,2013-07-03 01:01:00,
2013-07-02 19:11:00,91.0,52.0,-100.00,NNE,21,9.0,15.0,27,-99.99,,,0.00,481.149994,,2013-07-03 01:11:00,
2013-07-02 19:42:00,90.0,52.0,-100.00,NNE,24,4.0,7.0,27,-99.99,,,0.00,280.899994,,2013-07-03 01:42:00,
2013-07-02 19:59:00,90.0,52.0,-100.00,NNE,24,4.0,7.0,27,-99.99,,,0.00,280.899994,,2013-07-03 01:59:00,
2013-07-02 20:12:00,90.0,52.0,-100.00,NNE,24,4.0,7.0,27,-99.99,,,0.00,280.899994,,2013-07-03 02:12:00,
2013-07-02 20:43:00,88.0,51.0,-100.00,NNW,348,4.0,6.0,28,-99.99,,,0.00,124.589996,,2013-07-03 02:43:00,
2013-07-02 21:02:00,88.0,51.0,-100.00,NNW,348,4.0,6.0,28,-99.99,,,0.00,124.589996,,2013-07-03 03:02:00,
2013-07-02 21:12:00,88.0,51.0,-100.00,NNW,348,4.0,6.0,28,-99.99,,,0.00,124.589996,,2013-07-03 03:12:00,
2013-07-02 21:45:00,80.0,51.0,-100.00,NW,310,6.0,8.0,35,-99.99,,,0.00,18.360001,,2013-07-03 03:45:00,
2013-07-02 21:58:00,80.0,51.0,-100.00,NW,310,6.0,8.0,35,-99.99,,,0.00,18.360001,,2013-07-03 03:58:00,
2013-07-02 22:01:00,80.0,51.0,-100.00,NW,310,6.0,8.0,35,-99.99,,,0.00,18.360001,,2013-07-03 04:01:00,
2013-07-02 22:11:00,80.0,51.0,-100.00,NW,310,6.0,8.0,35,-99.99,,,0.00,18.360001,,2013-07-03 04:11:00,
2013-07-02 22:43:00,71.0,54.0,-100.00,SSW,193,6.0,9.0,55,-99.99,,,0.00,0.230000,,2013-07-03 04:43:00,
2013-07-02 22:52:00,71.0,54.0,-100.00,SSW,193,6.0,9.0,55,-99.99,,,0.00,0.230000,,2013-07-03 04:52:00,
2013-07-02 23:01:00,71.0,54.0,-100.00,SSW,193,6.0,9.0,55,-99.99,,,0.00,0.230000,,2013-07-03 05:01:00,
2013-07-02 23:11:00,71.0,54.0,-100.00,SSW,193,6.0,9.0,55,-99.99,,,0.00,0.230000,,2013-07-03 05:11:00,
2013-07-02 23:44:00,70.0,54.0,-100.00,WSW,240,4.0,7.0,56,-99.99,,,0.00,0.120000,,2013-07-03 05:44:00,
2013-07-02 23:59:00,70.0,54.0,-100.00,WSW,240,4.0,7.0,56,-99.99,,,0.00,0.120000,,2013-07-03 05:59:00,